﻿#,"Date Time, GMT-04:00","Temp, °C (LGR S/N: 20468808, SEN S/N: 20462391)","Water Content, m³/m³ (LGR S/N: 20468808, SEN S/N: 20471698)"
1,5/30/19 13:44,22.465,-0.3122
2,5/30/19 14:44,12.847,0.2323
3,5/30/19 15:44,12.847,0.2327
4,5/30/19 16:44,12.871,0.233
5,5/30/19 17:44,12.896,0.233
6,5/30/19 18:44,12.896,0.2335
7,5/30/19 19:44,12.871,0.2335
8,5/30/19 20:44,12.823,0.2335
9,5/30/19 21:44,12.703,0.233
10,5/30/19 22:44,12.509,0.2335
11,5/30/19 23:44,12.316,0.2311
12,5/31/19 0:44,12.001,0.2311
13,5/31/19 1:44,11.686,0.2311
14,5/31/19 2:44,11.394,0.2311
15,5/31/19 3:44,11.127,0.2311
16,5/31/19 4:44,10.858,0.2315
17,5/31/19 5:44,10.712,0.2315
18,5/31/19 6:44,10.614,0.2311
19,5/31/19 7:44,10.516,0.2306
20,5/31/19 8:44,10.663,0.2306
21,5/31/19 9:44,11.127,0.2303
22,5/31/19 10:44,11.759,0.2299
23,5/31/19 11:44,12.413,0.2291
24,5/31/19 12:44,13.04,0.2286
25,5/31/19 13:44,13.522,0.2286
26,5/31/19 14:44,13.882,0.2286
27,5/31/19 15:44,14.17,0.2286
28,5/31/19 16:44,14.481,0.2291
29,5/31/19 17:44,14.625,0.2291
30,5/31/19 18:44,14.673,0.2282
31,5/31/19 19:44,14.553,0.2269
32,5/31/19 20:44,14.337,0.2262
33,5/31/19 21:44,14.146,0.2262
34,5/31/19 22:44,14.122,0.2262
35,5/31/19 23:44,13.858,0.2262
36,6/1/19 0:44,13.666,0.2266
37,6/1/19 1:44,13.546,0.2262
38,6/1/19 2:44,13.473,0.2282
39,6/1/19 3:44,13.329,0.2299
40,6/1/19 4:44,13.185,0.2303
41,6/1/19 5:44,13.088,0.2347
42,6/1/19 6:44,13.016,0.2399
43,6/1/19 7:44,12.944,0.2394
44,6/1/19 8:44,12.944,0.2394
45,6/1/19 9:44,12.944,0.2379
46,6/1/19 10:44,13.137,0.2371
47,6/1/19 11:44,13.449,0.2367
48,6/1/19 12:44,13.353,0.2379
49,6/1/19 13:44,13.064,0.2596
50,6/1/19 14:44,13.185,0.2607
51,6/1/19 15:44,13.209,0.2592
52,6/1/19 16:44,13.353,0.2579
53,6/1/19 17:44,13.329,0.256
54,6/1/19 18:44,13.161,0.2546
55,6/1/19 19:44,13.088,0.2534
56,6/1/19 20:44,12.992,0.2528
57,6/1/19 21:44,12.847,0.2512
58,6/1/19 22:44,12.606,0.2505
59,6/1/19 23:44,12.364,0.2498
60,6/2/19 0:44,12.05,0.2498
61,6/2/19 1:44,11.832,0.2494
62,6/2/19 2:44,11.492,0.249
63,6/2/19 3:44,11.443,0.2483
64,6/2/19 4:44,11.127,0.2475
65,6/2/19 5:44,10.956,0.2475
66,6/2/19 6:44,10.907,0.2471
67,6/2/19 7:44,10.858,0.2464
68,6/2/19 8:44,11.005,0.246
69,6/2/19 9:44,11.224,0.2452
70,6/2/19 10:44,11.443,0.2445
71,6/2/19 11:44,11.54,0.2441
72,6/2/19 12:44,11.637,0.243
73,6/2/19 13:44,11.589,0.2421
74,6/2/19 14:44,11.565,0.2414
75,6/2/19 15:44,11.443,0.2406
76,6/2/19 16:44,11.394,0.2403
77,6/2/19 17:44,11.346,0.2394
78,6/2/19 18:44,11.297,0.2387
79,6/2/19 19:44,11.175,0.2387
80,6/2/19 20:44,10.98,0.2379
81,6/2/19 21:44,10.81,0.2379
82,6/2/19 22:44,10.541,0.2374
83,6/2/19 23:44,10.222,0.2371
84,6/3/19 0:44,9.854,0.2371
85,6/3/19 1:44,9.632,0.2371
86,6/3/19 2:44,9.361,0.2367
87,6/3/19 3:44,9.139,0.2371
88,6/3/19 4:44,9.064,0.2367
89,6/3/19 5:44,8.841,0.2367
90,6/3/19 6:44,8.494,0.2363
91,6/3/19 7:44,8.394,0.2367
92,6/3/19 8:44,8.543,0.2367
93,6/3/19 9:44,8.866,0.2363
94,6/3/19 10:44,9.238,0.2358
95,6/3/19 11:44,9.509,0.2355
96,6/3/19 12:44,9.854,0.2351
97,6/3/19 13:44,10.149,0.2344
98,6/3/19 14:44,10.394,0.2344
99,6/3/19 15:44,10.59,0.2339
100,6/3/19 16:44,10.736,0.233
101,6/3/19 17:44,10.638,0.2323
102,6/3/19 18:44,10.516,0.2318
103,6/3/19 19:44,10.492,0.2315
104,6/3/19 20:44,10.418,0.2311
105,6/3/19 21:44,10.296,0.2311
106,6/3/19 22:44,10.173,0.2306
107,6/3/19 23:44,10.026,0.2303
108,6/4/19 0:44,9.928,0.2303
109,6/4/19 1:44,9.829,0.2303
110,6/4/19 2:44,9.706,0.2299
111,6/4/19 3:44,9.534,0.2299
112,6/4/19 4:44,9.485,0.2294
113,6/4/19 5:44,9.534,0.2294
114,6/4/19 6:44,9.509,0.2291
115,6/4/19 7:44,9.558,0.2291
116,6/4/19 8:44,9.78,0.2291
117,6/4/19 9:44,10.149,0.2286
118,6/4/19 10:44,10.712,0.2282
119,6/4/19 11:44,11.321,0.2277
120,6/4/19 12:44,11.904,0.2274
121,6/4/19 13:44,12.195,0.2269
122,6/4/19 14:44,12.268,0.2269
123,6/4/19 15:44,12.316,0.2266
124,6/4/19 16:44,12.63,0.2262
125,6/4/19 17:44,12.751,0.2257
126,6/4/19 18:44,12.823,0.2254
127,6/4/19 19:44,12.775,0.2254
128,6/4/19 20:44,12.654,0.2249
129,6/4/19 21:44,12.558,0.2249
130,6/4/19 22:44,12.509,0.2249
131,6/4/19 23:44,12.509,0.2245
132,6/5/19 0:44,12.485,0.2241
133,6/5/19 1:44,12.461,0.2237
134,6/5/19 2:44,12.509,0.2237
135,6/5/19 3:44,12.509,0.2237
136,6/5/19 4:44,12.606,0.2553
137,6/5/19 5:44,12.63,0.2632
138,6/5/19 6:44,12.63,0.2618
139,6/5/19 7:44,12.582,0.2604
140,6/5/19 8:44,12.654,0.2592
141,6/5/19 9:44,12.799,0.2575
142,6/5/19 10:44,12.944,0.256
143,6/5/19 11:44,13.088,0.2546
144,6/5/19 12:44,13.281,0.2534
145,6/5/19 13:44,13.425,0.2532
146,6/5/19 14:44,13.666,0.252
147,6/5/19 15:44,13.834,0.2509
148,6/5/19 16:44,14.002,0.249
149,6/5/19 17:44,14.05,0.2483
150,6/5/19 18:44,14.026,0.2475
151,6/5/19 19:44,14.026,0.2468
152,6/5/19 20:44,13.978,0.2456
153,6/5/19 21:44,13.81,0.2452
154,6/5/19 22:44,13.594,0.2445
155,6/5/19 23:44,13.401,0.2437
156,6/6/19 0:44,13.233,0.2437
157,6/6/19 1:44,13.112,0.243
158,6/6/19 2:44,13.016,0.2421
159,6/6/19 3:44,12.871,0.2414
160,6/6/19 4:44,12.751,0.2414
161,6/6/19 5:44,12.606,0.2414
162,6/6/19 6:44,12.437,0.2406
163,6/6/19 7:44,12.316,0.2406
164,6/6/19 8:44,12.413,0.2403
165,6/6/19 9:44,12.678,0.2394
166,6/6/19 10:44,12.992,0.239
167,6/6/19 11:44,13.329,0.2379
168,6/6/19 12:44,13.69,0.2371
169,6/6/19 13:44,13.954,0.2367
170,6/6/19 14:44,14.146,0.2355
171,6/6/19 15:44,14.337,0.2347
172,6/6/19 16:44,14.553,0.2339
173,6/6/19 17:44,14.577,0.233
174,6/6/19 18:44,14.577,0.2318
175,6/6/19 19:44,14.529,0.2315
176,6/6/19 20:44,14.409,0.2257
177,6/6/19 21:44,14.242,0.2254
178,6/6/19 22:44,13.954,0.2254
179,6/6/19 23:44,13.642,0.2249
180,6/7/19 0:44,13.353,0.2245
181,6/7/19 1:44,13.112,0.2241
182,6/7/19 2:44,12.92,0.2237
183,6/7/19 3:44,12.678,0.2232
184,6/7/19 4:44,12.485,0.2232
185,6/7/19 5:44,12.364,0.2232
186,6/7/19 6:44,12.219,0.2232
187,6/7/19 7:44,12.195,0.2224
188,6/7/19 8:44,12.437,0.2216
189,6/7/19 9:44,12.847,0.2216
190,6/7/19 10:44,13.281,0.2208
191,6/7/19 11:44,13.642,0.2198
192,6/7/19 12:44,14.098,0.219
193,6/7/19 13:44,14.481,0.2185
194,6/7/19 14:44,14.768,0.2177
195,6/7/19 15:44,14.96,0.2164
196,6/7/19 16:44,15.175,0.2161
197,6/7/19 17:44,15.247,0.2164
198,6/7/19 18:44,15.247,0.2161
199,6/7/19 19:44,15.199,0.2148
200,6/7/19 20:44,15.151,0.2143
201,6/7/19 21:44,14.912,0.2143
202,6/7/19 22:44,14.625,0.2143
203,6/7/19 23:44,14.409,0.2134
204,6/8/19 0:44,14.194,0.2131
205,6/8/19 1:44,13.906,0.2131
206,6/8/19 2:44,13.738,0.2126
207,6/8/19 3:44,13.57,0.2126
208,6/8/19 4:44,13.377,0.2126
209,6/8/19 5:44,13.161,0.2117
210,6/8/19 6:44,13.04,0.2112
211,6/8/19 7:44,12.992,0.2112
212,6/8/19 8:44,13.088,0.2109
213,6/8/19 9:44,13.353,0.21
214,6/8/19 10:44,13.714,0.2095
215,6/8/19 11:44,14.122,0.2095
216,6/8/19 12:44,14.553,0.2083
217,6/8/19 13:44,14.816,0.2083
218,6/8/19 14:44,15.055,0.2073
219,6/8/19 15:44,15.199,0.2061
220,6/8/19 16:44,15.318,0.2056
221,6/8/19 17:44,15.27,0.2047
222,6/8/19 18:44,15.247,0.2038
223,6/8/19 19:44,15.199,0.2035
224,6/8/19 20:44,15.127,0.2026
225,6/8/19 21:44,14.96,0.202
226,6/8/19 22:44,14.768,0.202
227,6/8/19 23:44,14.601,0.2017
228,6/9/19 0:44,14.433,0.2012
229,6/9/19 1:44,14.314,0.2012
230,6/9/19 2:44,14.194,0.2008
231,6/9/19 3:44,14.05,0.2008
232,6/9/19 4:44,13.906,0.2008
233,6/9/19 5:44,13.762,0.2003
234,6/9/19 6:44,13.642,0.1999
235,6/9/19 7:44,13.594,0.1999
236,6/9/19 8:44,13.666,0.1994
237,6/9/19 9:44,13.786,0.199
238,6/9/19 10:44,13.906,0.1985
239,6/9/19 11:44,14.146,0.1981
240,6/9/19 12:44,14.457,0.1972
241,6/9/19 13:44,14.481,0.1972
242,6/9/19 14:44,14.457,0.2579
243,6/9/19 15:44,14.577,0.2618
244,6/9/19 16:44,14.673,0.2635
245,6/9/19 17:44,14.768,0.279
246,6/9/19 18:44,14.888,0.2817
247,6/9/19 19:44,15.079,0.2938
248,6/9/19 20:44,15.366,0.304
249,6/9/19 21:44,15.485,0.3066
250,6/9/19 22:44,15.438,0.3019
251,6/9/19 23:44,15.39,0.297
252,6/10/19 0:44,15.342,0.2942
253,6/10/19 1:44,15.461,0.3005
254,6/10/19 2:44,15.485,0.2979
255,6/10/19 3:44,15.485,0.2955
256,6/10/19 4:44,15.294,0.2908
257,6/10/19 5:44,15.103,0.2874
258,6/10/19 6:44,14.96,0.2847
259,6/10/19 7:44,14.768,0.2827
260,6/10/19 8:44,14.529,0.2806
261,6/10/19 9:44,14.218,0.2793
262,6/10/19 10:44,13.906,0.2786
263,6/10/19 11:44,13.69,0.2776
264,6/10/19 12:44,13.449,0.2766
265,6/10/19 13:44,13.329,0.2756
266,6/10/19 14:44,13.425,0.2746
267,6/10/19 15:44,13.522,0.2736
268,6/10/19 16:44,13.666,0.2726
269,6/10/19 17:44,13.666,0.2715
270,6/10/19 18:44,13.618,0.2705
271,6/10/19 19:44,13.57,0.2694
272,6/10/19 20:44,13.546,0.2687
273,6/10/19 21:44,13.401,0.268
274,6/10/19 22:44,13.088,0.2673
275,6/10/19 23:44,12.751,0.2666
276,6/11/19 0:44,12.509,0.2664
277,6/11/19 1:44,12.268,0.266
278,6/11/19 2:44,12.05,0.2657
279,6/11/19 3:44,11.88,0.265
280,6/11/19 4:44,11.734,0.2646
281,6/11/19 5:44,11.589,0.2642
282,6/11/19 6:44,11.443,0.2639
283,6/11/19 7:44,11.346,0.2635
284,6/11/19 8:44,11.419,0.2635
285,6/11/19 9:44,11.686,0.2628
286,6/11/19 10:44,12.074,0.2621
287,6/11/19 11:44,12.485,0.2615
288,6/11/19 12:44,12.896,0.2607
289,6/11/19 13:44,13.209,0.26
290,6/11/19 14:44,13.473,0.2589
291,6/11/19 15:44,13.69,0.2582
292,6/11/19 16:44,13.978,0.2571
293,6/11/19 17:44,14.026,0.2564
294,6/11/19 18:44,14.122,0.2557
295,6/11/19 19:44,14.122,0.255
296,6/11/19 20:44,14.05,0.2546
297,6/11/19 21:44,13.906,0.2542
298,6/11/19 22:44,13.786,0.2538
299,6/11/19 23:44,13.618,0.2538
300,6/12/19 0:44,13.473,0.2532
301,6/12/19 1:44,13.329,0.2532
302,6/12/19 2:44,13.233,0.2528
303,6/12/19 3:44,13.137,0.2524
304,6/12/19 4:44,13.04,0.2524
305,6/12/19 5:44,12.968,0.2516
306,6/12/19 6:44,12.847,0.2512
307,6/12/19 7:44,12.775,0.2509
308,6/12/19 8:44,12.847,0.2509
309,6/12/19 9:44,12.992,0.2502
310,6/12/19 10:44,13.088,0.2498
311,6/12/19 11:44,13.088,0.2494
312,6/12/19 12:44,13.088,0.2494
313,6/12/19 13:44,13.161,0.2494
314,6/12/19 14:44,13.233,0.249
315,6/12/19 15:44,13.401,0.2487
316,6/12/19 16:44,13.425,0.2607
317,6/12/19 17:44,13.377,0.2615
318,6/12/19 18:44,13.377,0.2618
319,6/12/19 19:44,13.329,0.2632
320,6/12/19 20:44,13.305,0.2684
321,6/12/19 21:44,13.209,0.2677
322,6/12/19 22:44,13.112,0.267
323,6/12/19 23:44,12.92,0.2726
324,6/13/19 0:44,12.799,0.2729
325,6/13/19 1:44,12.703,0.2722
326,6/13/19 2:44,12.63,0.2719
327,6/13/19 3:44,12.558,0.2712
328,6/13/19 4:44,12.485,0.2708
329,6/13/19 5:44,12.413,0.2712
330,6/13/19 6:44,12.316,0.2712
331,6/13/19 7:44,12.122,0.2726
332,6/13/19 8:44,11.904,0.2739
333,6/13/19 9:44,11.71,0.2813
334,6/13/19 10:44,11.662,0.2834
335,6/13/19 11:44,11.637,0.2824
336,6/13/19 12:44,11.662,0.2803
337,6/13/19 13:44,11.613,0.2786
338,6/13/19 14:44,11.734,0.277
339,6/13/19 15:44,11.856,0.2756
340,6/13/19 16:44,11.929,0.2743
341,6/13/19 17:44,11.953,0.2732
342,6/13/19 18:44,11.759,0.2722
343,6/13/19 19:44,11.589,0.2715
344,6/13/19 20:44,11.589,0.2708
345,6/13/19 21:44,11.589,0.2701
346,6/13/19 22:44,11.467,0.2698
347,6/13/19 23:44,11.273,0.2691
348,6/14/19 0:44,11.029,0.2687
349,6/14/19 1:44,10.81,0.2684
350,6/14/19 2:44,10.638,0.268
351,6/14/19 3:44,10.467,0.2677
352,6/14/19 4:44,10.32,0.2673
353,6/14/19 5:44,10.124,0.2677
354,6/14/19 6:44,9.977,0.267
355,6/14/19 7:44,9.952,0.267
356,6/14/19 8:44,10.1,0.2664
357,6/14/19 9:44,10.443,0.266
358,6/14/19 10:44,10.883,0.2657
359,6/14/19 11:44,11.102,0.265
360,6/14/19 12:44,11.2,0.2646
361,6/14/19 13:44,11.297,0.2639
362,6/14/19 14:44,11.273,0.2749
363,6/14/19 15:44,11.2,0.289
364,6/14/19 16:44,11.2,0.2932
365,6/14/19 17:44,11.273,0.2911
366,6/14/19 18:44,11.321,0.2904
367,6/14/19 19:44,11.394,0.2895
368,6/14/19 20:44,11.467,0.2895
369,6/14/19 21:44,11.516,0.2874
370,6/14/19 22:44,11.54,0.285
371,6/14/19 23:44,11.589,0.2827
372,6/15/19 0:44,11.613,0.281
373,6/15/19 1:44,11.613,0.2796
374,6/15/19 2:44,11.613,0.2786
375,6/15/19 3:44,11.71,0.278
376,6/15/19 4:44,11.929,0.2922
377,6/15/19 5:44,11.977,0.2994
378,6/15/19 6:44,11.977,0.3019
379,6/15/19 7:44,11.977,0.2984
380,6/15/19 8:44,11.977,0.2949
381,6/15/19 9:44,12.001,0.2901
382,6/15/19 10:44,12.074,0.2864
383,6/15/19 11:44,12.171,0.2837
384,6/15/19 12:44,12.268,0.2817
385,6/15/19 13:44,12.292,0.28
386,6/15/19 14:44,12.195,0.2786
387,6/15/19 15:44,12.195,0.2773
388,6/15/19 16:44,12.34,0.2759
389,6/15/19 17:44,12.461,0.2749
390,6/15/19 18:44,12.606,0.2739
391,6/15/19 19:44,12.751,0.2729
392,6/15/19 20:44,12.751,0.2722
393,6/15/19 21:44,12.703,0.2712
394,6/15/19 22:44,12.63,0.2705
395,6/15/19 23:44,12.485,0.2701
396,6/16/19 0:44,12.364,0.2691
397,6/16/19 1:44,12.292,0.2687
398,6/16/19 2:44,12.268,0.268
399,6/16/19 3:44,12.219,0.2677
400,6/16/19 4:44,12.171,0.2673
401,6/16/19 5:44,12.074,0.2666
402,6/16/19 6:44,12.001,0.2664
403,6/16/19 7:44,11.977,0.266
404,6/16/19 8:44,11.88,0.2653
405,6/16/19 9:44,11.807,0.265
406,6/16/19 10:44,11.88,0.2642
407,6/16/19 11:44,11.977,0.2639
408,6/16/19 12:44,12.122,0.2632
409,6/16/19 13:44,12.122,0.2628
410,6/16/19 14:44,12.195,0.2621
411,6/16/19 15:44,12.34,0.2621
412,6/16/19 16:44,12.364,0.2621
413,6/16/19 17:44,12.268,0.2628
414,6/16/19 18:44,12.171,0.2628
415,6/16/19 19:44,12.195,0.2628
416,6/16/19 20:44,12.195,0.2624
417,6/16/19 21:44,12.147,0.2624
418,6/16/19 22:44,12.074,0.2621
419,6/16/19 23:44,11.977,0.2618
420,6/17/19 0:44,11.88,0.2618
421,6/17/19 1:44,11.783,0.2615
422,6/17/19 2:44,11.662,0.2615
423,6/17/19 3:44,11.565,0.2611
424,6/17/19 4:44,11.443,0.2607
425,6/17/19 5:44,11.321,0.2607
426,6/17/19 6:44,11.224,0.2604
427,6/17/19 7:44,11.2,0.26
428,6/17/19 8:44,11.321,0.2592
429,6/17/19 9:44,11.589,0.2592
430,6/17/19 10:44,11.953,0.2585
431,6/17/19 11:44,12.364,0.2582
432,6/17/19 12:44,12.775,0.2575
433,6/17/19 13:44,13.088,0.2571
434,6/17/19 14:44,13.353,0.2564
435,6/17/19 15:44,13.594,0.256
436,6/17/19 16:44,13.978,0.2557
437,6/17/19 17:44,14.17,0.255
438,6/17/19 18:44,14.194,0.2538
439,6/17/19 19:44,14.242,0.2538
440,6/17/19 20:44,14.218,0.2532
441,6/17/19 21:44,14.098,0.2532
442,6/17/19 22:44,13.882,0.2532
443,6/17/19 23:44,13.618,0.2528
444,6/18/19 0:44,13.353,0.2524
445,6/18/19 1:44,13.137,0.2528
446,6/18/19 2:44,12.896,0.2524
447,6/18/19 3:44,12.678,0.252
448,6/18/19 4:44,12.485,0.252
449,6/18/19 5:44,12.364,0.252
450,6/18/19 6:44,12.243,0.2516
451,6/18/19 7:44,12.219,0.2516
452,6/18/19 8:44,12.364,0.2512
453,6/18/19 9:44,12.606,0.2505
454,6/18/19 10:44,12.847,0.2498
455,6/18/19 11:44,13.137,0.2498
456,6/18/19 12:44,13.473,0.249
457,6/18/19 13:44,13.906,0.2483
458,6/18/19 14:44,14.29,0.2479
459,6/18/19 15:44,14.481,0.2471
460,6/18/19 16:44,14.721,0.2464
461,6/18/19 17:44,14.864,0.2456
462,6/18/19 18:44,14.96,0.2449
463,6/18/19 19:44,14.96,0.2445
464,6/18/19 20:44,14.936,0.2441
465,6/18/19 21:44,14.792,0.2441
466,6/18/19 22:44,14.625,0.2437
467,6/18/19 23:44,14.481,0.2434
468,6/19/19 0:44,14.385,0.2434
469,6/19/19 1:44,14.314,0.2434
470,6/19/19 2:44,14.266,0.2434
471,6/19/19 3:44,14.194,0.243
472,6/19/19 4:44,14.122,0.243
473,6/19/19 5:44,14.026,0.243
474,6/19/19 6:44,13.954,0.2425
475,6/19/19 7:44,13.906,0.243
476,6/19/19 8:44,13.906,0.2449
477,6/19/19 9:44,13.954,0.2528
478,6/19/19 10:44,14.002,0.2553
479,6/19/19 11:44,14.05,0.2557
480,6/19/19 12:44,14.122,0.2553
481,6/19/19 13:44,14.218,0.2553
482,6/19/19 14:44,14.433,0.255
483,6/19/19 15:44,14.697,0.2542
484,6/19/19 16:44,14.984,0.2538
485,6/19/19 17:44,15.031,0.2532
486,6/19/19 18:44,14.96,0.2528
487,6/19/19 19:44,14.912,0.2524
488,6/19/19 20:44,14.888,0.252
489,6/19/19 21:44,14.768,0.2516
490,6/19/19 22:44,14.577,0.2512
491,6/19/19 23:44,14.409,0.2509
492,6/20/19 0:44,14.242,0.2509
493,6/20/19 1:44,14.146,0.2505
494,6/20/19 2:44,14.098,0.2502
495,6/20/19 3:44,14.074,0.2502
496,6/20/19 4:44,14.026,0.2502
497,6/20/19 5:44,13.978,0.2498
498,6/20/19 6:44,13.906,0.2494
499,6/20/19 7:44,13.834,0.2494
500,6/20/19 8:44,13.81,0.249
501,6/20/19 9:44,13.858,0.2487
502,6/20/19 10:44,13.978,0.2483
503,6/20/19 11:44,14.17,0.2475
504,6/20/19 12:44,14.337,0.2471
505,6/20/19 13:44,14.529,0.2464
506,6/20/19 14:44,14.625,0.2456
507,6/20/19 15:44,14.745,0.2449
508,6/20/19 16:44,14.864,0.2441
509,6/20/19 17:44,14.912,0.243
510,6/20/19 18:44,14.84,0.2425
511,6/20/19 19:44,14.745,0.2421
512,6/20/19 20:44,14.625,0.2418
513,6/20/19 21:44,14.457,0.2414
514,6/20/19 22:44,14.266,0.241
515,6/20/19 23:44,14.026,0.2406
516,6/21/19 0:44,13.858,0.2406
517,6/21/19 1:44,13.666,0.2403
518,6/21/19 2:44,13.522,0.2403
519,6/21/19 3:44,13.353,0.2399
520,6/21/19 4:44,13.233,0.2399
521,6/21/19 5:44,13.016,0.2394
522,6/21/19 6:44,12.775,0.2394
523,6/21/19 7:44,12.63,0.2394
524,6/21/19 8:44,12.678,0.239
525,6/21/19 9:44,12.871,0.239
526,6/21/19 10:44,13.257,0.2379
527,6/21/19 11:44,13.594,0.2374
528,6/21/19 12:44,13.93,0.2363
529,6/21/19 13:44,14.194,0.2355
530,6/21/19 14:44,14.457,0.2347
531,6/21/19 15:44,14.625,0.2339
532,6/21/19 16:44,14.792,0.233
533,6/21/19 17:44,14.864,0.2318
534,6/21/19 18:44,14.84,0.2315
535,6/21/19 19:44,14.721,0.2306
536,6/21/19 20:44,14.577,0.2303
537,6/21/19 21:44,14.337,0.2299
538,6/21/19 22:44,14.122,0.2299
539,6/21/19 23:44,13.954,0.2294
540,6/22/19 0:44,13.786,0.2294
541,6/22/19 1:44,13.594,0.2294
542,6/22/19 2:44,13.425,0.2294
543,6/22/19 3:44,13.281,0.2291
544,6/22/19 4:44,13.137,0.2291
545,6/22/19 5:44,12.968,0.2291
546,6/22/19 6:44,12.847,0.2282
547,6/22/19 7:44,12.847,0.2286
548,6/22/19 8:44,12.944,0.2282
549,6/22/19 9:44,13.161,0.2277
550,6/22/19 10:44,13.449,0.2269
551,6/22/19 11:44,13.762,0.2257
552,6/22/19 12:44,14.146,0.2249
553,6/22/19 13:44,14.481,0.2245
554,6/22/19 14:44,14.745,0.2232
555,6/22/19 15:44,14.96,0.2224
556,6/22/19 16:44,15.127,0.2216
557,6/22/19 17:44,15.175,0.2203
558,6/22/19 18:44,15.199,0.219
559,6/22/19 19:44,15.175,0.2185
560,6/22/19 20:44,15.103,0.2182
561,6/22/19 21:44,14.984,0.2177
562,6/22/19 22:44,14.745,0.2182
563,6/22/19 23:44,14.481,0.2174
564,6/23/19 0:44,14.242,0.2174
565,6/23/19 1:44,14.05,0.2177
566,6/23/19 2:44,13.834,0.2174
567,6/23/19 3:44,13.666,0.2169
568,6/23/19 4:44,13.522,0.2164
569,6/23/19 5:44,13.377,0.2169
570,6/23/19 6:44,13.257,0.2164
571,6/23/19 7:44,13.257,0.2164
572,6/23/19 8:44,13.377,0.2161
573,6/23/19 9:44,13.594,0.2148
574,6/23/19 10:44,13.906,0.2139
575,6/23/19 11:44,14.194,0.2134
576,6/23/19 12:44,14.673,0.2126
577,6/23/19 13:44,15.008,0.2117
578,6/23/19 14:44,15.342,0.2104
579,6/23/19 15:44,15.581,0.2095
580,6/23/19 16:44,15.819,0.2087
581,6/23/19 17:44,15.819,0.2078
582,6/23/19 18:44,15.676,0.2078
583,6/23/19 19:44,15.557,0.2073
584,6/23/19 20:44,15.533,0.207
585,6/23/19 21:44,15.509,0.2064
586,6/23/19 22:44,15.461,0.2064
587,6/23/19 23:44,15.438,0.2064
588,6/24/19 0:44,15.318,0.2061
589,6/24/19 1:44,15.199,0.2064
590,6/24/19 2:44,15.055,0.2061
591,6/24/19 3:44,14.936,0.2056
592,6/24/19 4:44,14.84,0.2177
593,6/24/19 5:44,14.84,0.2257
594,6/24/19 6:44,14.888,0.2299
595,6/24/19 7:44,15.055,0.2387
596,6/24/19 8:44,15.175,0.2502
597,6/24/19 9:44,15.294,0.2524
598,6/24/19 10:44,15.461,0.2528
599,6/24/19 11:44,15.605,0.2524
600,6/24/19 12:44,15.819,0.2524
601,6/24/19 13:44,15.963,0.252
602,6/24/19 14:44,16.082,0.2546
603,6/24/19 15:44,16.153,0.256
604,6/24/19 16:44,16.296,0.2639
605,6/24/19 17:44,16.034,0.2813
606,6/24/19 18:44,15.843,0.2783
607,6/24/19 19:44,15.772,0.2756
608,6/24/19 20:44,15.724,0.2736
609,6/24/19 21:44,15.7,0.2753
610,6/24/19 22:44,15.629,0.2756
611,6/24/19 23:44,15.509,0.2746
612,6/25/19 0:44,15.294,0.2736
613,6/25/19 1:44,15.127,0.2722
614,6/25/19 2:44,14.936,0.2786
615,6/25/19 3:44,14.792,0.2813
616,6/25/19 4:44,14.721,0.2793
617,6/25/19 5:44,14.697,0.2776
618,6/25/19 6:44,14.721,0.2759
619,6/25/19 7:44,14.697,0.2749
620,6/25/19 8:44,14.673,0.2736
621,6/25/19 9:44,14.697,0.2729
622,6/25/19 10:44,14.864,0.2719
623,6/25/19 11:44,15.151,0.2708
624,6/25/19 12:44,15.533,0.2694
625,6/25/19 13:44,15.819,0.2684
626,6/25/19 14:44,16.106,0.2673
627,6/25/19 15:44,16.344,0.2664
628,6/25/19 16:44,16.415,0.2653
629,6/25/19 17:44,16.249,0.2646
630,6/25/19 18:44,16.106,0.2642
631,6/25/19 19:44,16.082,0.2635
632,6/25/19 20:44,16.106,0.2628
633,6/25/19 21:44,16.034,0.2621
634,6/25/19 22:44,15.915,0.2621
635,6/25/19 23:44,15.819,0.2618
636,6/26/19 0:44,15.7,0.2615
637,6/26/19 1:44,15.629,0.2611
638,6/26/19 2:44,15.557,0.2611
639,6/26/19 3:44,15.414,0.2604
640,6/26/19 4:44,15.247,0.26
641,6/26/19 5:44,15.055,0.26
642,6/26/19 6:44,14.888,0.2596
643,6/26/19 7:44,14.768,0.2596
644,6/26/19 8:44,14.768,0.2589
645,6/26/19 9:44,14.96,0.2585
646,6/26/19 10:44,15.318,0.2579
647,6/26/19 11:44,15.676,0.2571
648,6/26/19 12:44,16.034,0.2564
649,6/26/19 13:44,16.296,0.2557
650,6/26/19 14:44,16.534,0.2542
651,6/26/19 15:44,16.725,0.2538
652,6/26/19 16:44,16.868,0.2532
653,6/26/19 17:44,16.868,0.252
654,6/26/19 18:44,16.844,0.2512
655,6/26/19 19:44,16.82,0.2509
656,6/26/19 20:44,16.773,0.2505
657,6/26/19 21:44,16.677,0.2498
658,6/26/19 22:44,16.439,0.2498
659,6/26/19 23:44,16.201,0.249
660,6/27/19 0:44,16.01,0.249
661,6/27/19 1:44,15.843,0.2487
662,6/27/19 2:44,15.7,0.2487
663,6/27/19 3:44,15.581,0.2483
664,6/27/19 4:44,15.438,0.2487
665,6/27/19 5:44,15.294,0.2483
666,6/27/19 6:44,15.151,0.2483
667,6/27/19 7:44,15.103,0.2479
668,6/27/19 8:44,15.27,0.2471
669,6/27/19 9:44,15.557,0.2468
670,6/27/19 10:44,15.963,0.246
671,6/27/19 11:44,16.392,0.2449
672,6/27/19 12:44,16.844,0.2441
673,6/27/19 13:44,17.177,0.243
674,6/27/19 14:44,17.439,0.2421
675,6/27/19 15:44,17.653,0.2406
676,6/27/19 16:44,17.962,0.2394
677,6/27/19 17:44,18.033,0.2387
678,6/27/19 18:44,18.057,0.2374
679,6/27/19 19:44,18.057,0.2367
680,6/27/19 20:44,17.962,0.2363
681,6/27/19 21:44,17.796,0.2358
682,6/27/19 22:44,17.534,0.2355
683,6/27/19 23:44,17.368,0.2355
684,6/28/19 0:44,17.225,0.2351
685,6/28/19 1:44,17.13,0.2351
686,6/28/19 2:44,17.058,0.2351
687,6/28/19 3:44,16.987,0.2351
688,6/28/19 4:44,16.963,0.2351
689,6/28/19 5:44,16.892,0.2351
690,6/28/19 6:44,16.868,0.2452
691,6/28/19 7:44,16.963,0.2976
692,6/28/19 8:44,16.844,0.2935
693,6/28/19 9:44,16.82,0.289
694,6/28/19 10:44,16.82,0.2853
695,6/28/19 11:44,16.987,0.283
696,6/28/19 12:44,17.082,0.2813
697,6/28/19 13:44,17.177,0.279
698,6/28/19 14:44,17.32,0.2773
699,6/28/19 15:44,17.558,0.2753
700,6/28/19 16:44,17.724,0.2736
701,6/28/19 17:44,17.843,0.2722
702,6/28/19 18:44,17.938,0.2712
703,6/28/19 19:44,18.033,0.2701
704,6/28/19 20:44,18.01,0.2691
705,6/28/19 21:44,17.867,0.2687
706,6/28/19 22:44,17.677,0.2677
707,6/28/19 23:44,17.463,0.267
708,6/29/19 0:44,17.296,0.2664
709,6/29/19 1:44,17.13,0.266
710,6/29/19 2:44,16.963,0.2657
711,6/29/19 3:44,16.82,0.265
712,6/29/19 4:44,16.701,0.2646
713,6/29/19 5:44,16.582,0.2642
714,6/29/19 6:44,16.534,0.2635
715,6/29/19 7:44,16.511,0.2632
716,6/29/19 8:44,16.558,0.2628
717,6/29/19 9:44,16.82,0.2621
718,6/29/19 10:44,17.177,0.2607
719,6/29/19 11:44,17.463,0.26
720,6/29/19 12:44,17.796,0.2585
721,6/29/19 13:44,18.033,0.2579
722,6/29/19 14:44,18.247,0.2567
723,6/29/19 15:44,18.438,0.2557
724,6/29/19 16:44,18.699,0.2546
725,6/29/19 17:44,18.675,0.2532
726,6/29/19 18:44,18.604,0.2528
727,6/29/19 19:44,18.509,0.2516
728,6/29/19 20:44,18.414,0.2509
729,6/29/19 21:44,18.343,0.2456
730,6/29/19 22:44,18.081,0.2456
731,6/29/19 23:44,17.796,0.2452
732,6/30/19 0:44,17.605,0.2449
733,6/30/19 1:44,17.439,0.2445
734,6/30/19 2:44,17.296,0.2441
735,6/30/19 3:44,17.13,0.2445
736,6/30/19 4:44,16.963,0.2441
737,6/30/19 5:44,16.82,0.2441
738,6/30/19 6:44,16.582,0.2441
739,6/30/19 7:44,16.392,0.2437
740,6/30/19 8:44,16.415,0.2434
741,6/30/19 9:44,16.63,0.243
742,6/30/19 10:44,16.915,0.2421
743,6/30/19 11:44,17.177,0.241
744,6/30/19 12:44,17.463,0.2403
745,6/30/19 13:44,17.677,0.2394
746,6/30/19 14:44,17.819,0.2383
747,6/30/19 15:44,17.962,0.2379
748,6/30/19 16:44,18.105,0.2367